SIC0904 LICJ-LIPB

Flight info

Callsign SIC0904
Flight time 2h 11m
Altitude 26000
Route LURON DCT UNIXO DCT NIKMA DCT VIC
Aircraft PC12/L-SBDFGJ1RWY/LB1

Departure

Time 2026-04-23 11:40
Airport Falcone–Borsellino Airport (LICJ)

Arrival

Time 2026-04-23 13:52
Airport Bolzano Airport (LIPB)
Time Latitude Longitude Altitude Speed Heading
2026-04-23 11:16 38.18640 13.11004 61 ft 0 kts 67°
2026-04-23 11:27 38.18640 13.11005 61 ft 1 kts 67°
2026-04-23 11:27 38.18649 13.11032 61 ft 4 kts 66°
2026-04-23 11:27 38.18654 13.11047 57 ft 0 kts 67°
2026-04-23 11:29 38.18640 13.11004 57 ft 0 kts 67°
2026-04-23 11:35 38.18641 13.11009 61 ft 3 kts 66°
2026-04-23 11:35 38.18656 13.11056 61 ft 8 kts 84°
2026-04-23 11:35 38.18594 13.11111 57 ft 15 kts 158°
2026-04-23 11:35 38.18514 13.11028 59 ft 20 kts 248°
2026-04-23 11:36 38.18410 13.10927 62 ft 21 kts 216°
2026-04-23 11:36 38.18344 13.10744 59 ft 25 kts 245°
2026-04-23 11:36 38.18263 13.10534 60 ft 28 kts 244°
2026-04-23 11:37 38.18178 13.10262 62 ft 0 kts 246°
2026-04-23 11:37 38.18175 13.10253 56 ft 8 kts 246°
2026-04-23 11:37 38.18122 13.10089 61 ft 29 kts 246°
2026-04-23 11:37 38.18038 13.09840 60 ft 31 kts 244°
2026-04-23 11:38 38.17952 13.09588 61 ft 31 kts 246°
2026-04-23 11:38 38.17871 13.09343 63 ft 29 kts 247°
2026-04-23 11:38 38.17792 13.09104 60 ft 29 kts 248°
2026-04-23 11:38 38.17675 13.08893 59 ft 30 kts 216°
2026-04-23 11:39 38.17505 13.08751 62 ft 21 kts 179°
2026-04-23 11:39 38.17499 13.08851 66 ft 16 kts 67°
2026-04-23 11:39 38.17611 13.09196 69 ft 65 kts 66°
2026-04-23 11:39 38.17825 13.09830 127 ft 89 kts 68°
2026-04-23 11:40 38.18078 13.10651 303 ft 112 kts 65°
2026-04-23 11:40 38.18424 13.11633 471 ft 131 kts 64°
2026-04-23 11:40 38.18825 13.12802 680 ft 157 kts 65°
2026-04-23 11:40 38.19279 13.14144 939 ft 173 kts 66°
2026-04-23 11:41 38.19770 13.15603 1219 ft 184 kts 65°
2026-04-23 11:41 38.20269 13.17087 1674 ft 180 kts 64°
2026-04-23 11:41 38.20767 13.18542 2123 ft 179 kts 63°
2026-04-23 11:41 38.21538 13.19752 2581 ft 177 kts 38°
2026-04-23 11:42 38.22622 13.20487 3047 ft 177 kts 24°
2026-04-23 11:42 38.23765 13.21087 3506 ft 178 kts 24°
2026-04-23 11:42 38.24904 13.21696 3952 ft 177 kts 24°
2026-04-23 11:42 38.26042 13.22302 4403 ft 177 kts 23°
2026-04-23 11:43 38.27178 13.22906 4880 ft 177 kts 23°
2026-04-23 11:43 38.28324 13.23516 5249 ft 181 kts 22°
2026-04-23 11:43 38.29495 13.24139 5606 ft 184 kts 22°
2026-04-23 11:43 38.30702 13.24781 5884 ft 192 kts 22°
2026-04-23 11:44 38.31942 13.25443 6133 ft 200 kts 22°
2026-04-23 11:44 38.33243 13.26137 6396 ft 205 kts 21°
2026-04-23 11:44 38.34573 13.26846 6647 ft 209 kts 20°
2026-04-23 11:44 38.35922 13.27565 6890 ft 211 kts 20°
2026-04-23 11:45 38.37287 13.28293 7146 ft 214 kts 21°
2026-04-23 11:45 38.38663 13.29028 7397 ft 215 kts 20°
2026-04-23 11:45 38.40041 13.29762 7645 ft 215 kts 19°
2026-04-23 11:45 38.41481 13.30165 7898 ft 212 kts
2026-04-23 11:46 38.42936 13.29905 8155 ft 211 kts 342°
2026-04-23 11:46 38.44331 13.29310 8408 ft 212 kts 341°
2026-04-23 11:46 38.45732 13.28715 8666 ft 213 kts 341°
2026-04-23 11:46 38.47137 13.28121 8928 ft 213 kts 341°
2026-04-23 11:47 38.48541 13.27526 9187 ft 213 kts 341°
2026-04-23 11:47 38.49945 13.26929 9450 ft 213 kts 341°
2026-04-23 11:47 38.51352 13.26331 9716 ft 213 kts 340°
2026-04-23 11:47 38.52760 13.25733 9984 ft 213 kts 340°
2026-04-23 11:48 38.54168 13.25134 10234 ft 213 kts 340°
2026-04-23 11:48 38.55574 13.24536 10467 ft 213 kts 340°
2026-04-23 11:48 38.56981 13.23937 10712 ft 213 kts 340°
2026-04-23 11:48 38.58389 13.23338 10959 ft 213 kts 340°
2026-04-23 11:49 38.59797 13.22738 11208 ft 213 kts 340°
2026-04-23 11:49 38.61205 13.22139 11458 ft 214 kts 340°
2026-04-23 11:49 38.62615 13.21538 11710 ft 214 kts 340°
2026-04-23 11:49 38.64027 13.20936 11964 ft 214 kts 340°
2026-04-23 11:50 38.65439 13.20334 12221 ft 214 kts 340°
2026-04-23 11:50 38.66850 13.19731 12478 ft 214 kts 340°
2026-04-23 11:50 38.68263 13.19128 12738 ft 214 kts 339°
2026-04-23 11:50 38.69677 13.18524 13001 ft 214 kts 339°
2026-04-23 11:51 38.71096 13.17918 13269 ft 216 kts 339°
2026-04-23 11:51 38.72523 13.17307 13536 ft 217 kts 339°
2026-04-23 11:51 38.73952 13.16696 13803 ft 217 kts 339°
2026-04-23 11:51 38.75383 13.16084 14057 ft 216 kts 339°
2026-04-23 11:52 38.76810 13.15473 14296 ft 216 kts 339°
2026-04-23 11:52 38.78232 13.14864 14536 ft 215 kts 338°
2026-04-23 11:52 38.79649 13.14257 14778 ft 215 kts 338°
2026-04-23 11:52 38.81063 13.13651 15023 ft 214 kts 338°
2026-04-23 11:53 38.82473 13.13047 15259 ft 213 kts 338°
2026-04-23 11:53 38.83878 13.12445 15526 ft 213 kts 339°
2026-04-23 11:53 38.85280 13.11843 15774 ft 212 kts 339°
2026-04-23 11:53 38.86707 13.11383 16023 ft 212 kts 346°
2026-04-23 11:54 38.88167 13.11070 16280 ft 212 kts 346°
2026-04-23 11:54 38.89603 13.10762 16533 ft 212 kts 345°
2026-04-23 11:54 38.91056 13.10441 16793 ft 212 kts 345°
2026-04-23 11:54 38.92507 13.10120 17056 ft 211 kts 345°
2026-04-23 11:55 38.93948 13.09801 17322 ft 211 kts 345°
2026-04-23 11:55 38.95402 13.09481 17589 ft 211 kts 344°
2026-04-23 11:55 38.96845 13.09162 17858 ft 210 kts 344°
2026-04-23 11:55 38.98283 13.08844 18129 ft 209 kts 344°
2026-04-23 11:56 38.99717 13.08527 18399 ft 209 kts 343°
2026-04-23 11:56 39.01146 13.08211 18639 ft 208 kts 343°
2026-04-23 11:56 39.02576 13.07895 18877 ft 208 kts 343°
2026-04-23 11:56 39.04003 13.07578 19113 ft 208 kts 343°
2026-04-23 11:57 39.05427 13.07263 19347 ft 208 kts 343°
2026-04-23 11:57 39.06850 13.06948 19616 ft 207 kts 344°
2026-04-23 11:57 39.08270 13.06633 19859 ft 207 kts 343°
2026-04-23 11:57 39.09692 13.06319 20106 ft 207 kts 343°
2026-04-23 11:58 39.11115 13.06003 20358 ft 207 kts 343°
2026-04-23 11:58 39.12536 13.05688 20612 ft 207 kts 343°
2026-04-23 11:58 39.13957 13.05372 20864 ft 207 kts 342°
2026-04-23 11:58 39.15379 13.05056 21120 ft 207 kts 342°
2026-04-23 11:59 39.16796 13.04742 21375 ft 207 kts 342°
2026-04-23 11:59 39.18213 13.04426 21637 ft 207 kts 342°
2026-04-23 11:59 39.19629 13.04112 21899 ft 206 kts 341°
2026-04-23 11:59 39.21046 13.03797 22166 ft 206 kts 341°
2026-04-23 12:00 39.22459 13.03483 22432 ft 206 kts 341°
2026-04-23 12:00 39.23851 13.03172 22698 ft 206 kts 340°
2026-04-23 12:00 39.25277 13.02853 22973 ft 205 kts 340°
2026-04-23 12:00 39.26683 13.02540 23247 ft 205 kts 340°
2026-04-23 12:01 39.28077 13.02231 23527 ft 202 kts 340°
2026-04-23 12:01 39.29452 13.01925 23790 ft 199 kts 339°
2026-04-23 12:01 39.30796 13.01626 24037 ft 198 kts 340°
2026-04-23 12:01 39.32145 13.01326 24274 ft 196 kts 340°
2026-04-23 12:02 39.33485 13.01027 24502 ft 195 kts 340°
2026-04-23 12:02 39.34817 13.00729 24739 ft 194 kts 340°
2026-04-23 12:02 39.36142 13.00432 24977 ft 193 kts 340°
2026-04-23 12:02 39.37460 13.00138 25216 ft 192 kts 339°
2026-04-23 12:03 39.38771 12.99844 25458 ft 191 kts 339°
2026-04-23 12:03 39.40078 12.99552 25704 ft 190 kts 339°
2026-04-23 12:03 39.41378 12.99261 25954 ft 189 kts 339°
2026-04-23 12:03 39.42678 12.98969 26140 ft 192 kts 339°
2026-04-23 12:04 39.44025 12.98661 26141 ft 201 kts 339°
2026-04-23 12:04 39.45430 12.98346 26145 ft 208 kts 340°
2026-04-23 12:04 39.46878 12.98024 26147 ft 214 kts 340°
2026-04-23 12:04 39.48357 12.97695 26151 ft 217 kts 340°
2026-04-23 12:05 39.49859 12.97359 26155 ft 220 kts 340°
2026-04-23 12:05 39.51373 12.97020 26155 ft 222 kts 340°
2026-04-23 12:05 39.52902 12.96677 26177 ft 224 kts 341°
2026-04-23 12:05 39.54450 12.96329 26158 ft 227 kts 342°
2026-04-23 12:06 39.56010 12.95980 26156 ft 228 kts 342°
2026-04-23 12:06 39.57577 12.95628 26159 ft 229 kts 342°
2026-04-23 12:06 39.60726 12.94920 26160 ft 230 kts 342°
2026-04-23 12:07 39.62307 12.94564 26161 ft 231 kts 342°
2026-04-23 12:07 39.63888 12.94208 26161 ft 231 kts 342°
2026-04-23 12:07 39.65475 12.93850 26161 ft 231 kts 342°
2026-04-23 12:07 39.67057 12.93494 26161 ft 231 kts 342°
2026-04-23 12:08 39.68644 12.93136 26161 ft 231 kts 342°
2026-04-23 12:08 39.70230 12.92778 26161 ft 231 kts 342°
2026-04-23 12:08 39.71815 12.92420 26160 ft 231 kts 342°
2026-04-23 12:08 39.73403 12.92062 26160 ft 231 kts 342°
2026-04-23 12:09 39.74990 12.91703 26159 ft 232 kts 342°
2026-04-23 12:09 39.76582 12.91342 26163 ft 233 kts 343°
2026-04-23 12:09 39.78186 12.90979 26163 ft 234 kts 343°
2026-04-23 12:09 39.79789 12.90617 26163 ft 234 kts 343°
2026-04-23 12:10 39.81399 12.90253 26160 ft 235 kts 343°
2026-04-23 12:10 39.82988 12.89893 26160 ft 235 kts 343°
2026-04-23 12:10 39.84600 12.89527 26163 ft 236 kts 343°
2026-04-23 12:10 39.86217 12.89161 26164 ft 236 kts 343°
2026-04-23 12:11 39.87833 12.88794 26165 ft 236 kts 344°
2026-04-23 12:11 39.89471 12.88423 26166 ft 236 kts 344°
2026-04-23 12:11 39.91090 12.88055 26166 ft 236 kts 344°
2026-04-23 12:11 39.92710 12.87687 26166 ft 236 kts 344°
2026-04-23 12:12 39.94329 12.87319 26168 ft 236 kts 344°
2026-04-23 12:12 39.95948 12.86951 26168 ft 236 kts 344°
2026-04-23 12:12 39.97545 12.86588 26168 ft 236 kts 344°
2026-04-23 12:12 39.99168 12.86218 26168 ft 236 kts 344°
2026-04-23 12:13 40.00788 12.85849 26170 ft 237 kts 344°
2026-04-23 12:13 40.02409 12.85480 26172 ft 237 kts 344°
2026-04-23 12:13 40.04031 12.85110 26172 ft 237 kts 344°
2026-04-23 12:13 40.05651 12.84741 26172 ft 237 kts 344°
2026-04-23 12:14 40.07275 12.84370 26169 ft 237 kts 344°
2026-04-23 12:14 40.08895 12.84001 26169 ft 237 kts 344°
2026-04-23 12:14 40.09991 12.83750 26169 ft 237 kts 344°
2026-04-23 12:14 40.12138 12.83260 26169 ft 237 kts 344°
2026-04-23 12:15 40.13760 12.82889 26171 ft 236 kts 344°
2026-04-23 12:15 40.14831 12.82645 26171 ft 235 kts 344°
2026-04-23 12:15 40.16435 12.82279 26170 ft 233 kts 344°
2026-04-23 12:15 40.18027 12.81914 26169 ft 232 kts 344°
2026-04-23 12:16 40.19616 12.81549 26178 ft 231 kts 345°
2026-04-23 12:16 40.21205 12.81184 26170 ft 233 kts 346°
2026-04-23 12:16 40.22803 12.80818 26172 ft 233 kts 346°
2026-04-23 12:16 40.24400 12.80452 26170 ft 233 kts 346°
2026-04-23 12:17 40.26000 12.80085 26172 ft 234 kts 346°
2026-04-23 12:17 40.27604 12.79717 26172 ft 234 kts 346°
2026-04-23 12:17 40.29197 12.79351 26169 ft 234 kts 346°
2026-04-23 12:17 40.30814 12.78979 26176 ft 235 kts 346°
2026-04-23 12:18 40.32415 12.78611 26172 ft 236 kts 346°
2026-04-23 12:18 40.34045 12.78236 26175 ft 236 kts 347°
2026-04-23 12:18 40.35650 12.77867 26175 ft 237 kts 347°
2026-04-23 12:18 40.37287 12.77490 26175 ft 237 kts 347°
2026-04-23 12:19 40.38892 12.77121 26159 ft 237 kts 346°
2026-04-23 12:19 40.40533 12.76743 26164 ft 236 kts 346°
2026-04-23 12:19 40.42153 12.76369 26164 ft 237 kts 346°
2026-04-23 12:19 40.43778 12.75994 26170 ft 238 kts 348°
2026-04-23 12:20 40.45409 12.75618 26170 ft 239 kts 348°
2026-04-23 12:20 40.47051 12.75239 26170 ft 239 kts 348°
2026-04-23 12:20 40.48692 12.74860 26171 ft 240 kts 348°
2026-04-23 12:20 40.50339 12.74479 26171 ft 240 kts 348°
2026-04-23 12:21 40.51986 12.74099 26170 ft 240 kts 349°
2026-04-23 12:21 40.53632 12.73718 26170 ft 241 kts 349°
2026-04-23 12:21 40.55282 12.73336 26170 ft 241 kts 349°
2026-04-23 12:21 40.56930 12.72954 26170 ft 240 kts 349°
2026-04-23 12:22 40.58577 12.72573 26170 ft 240 kts 349°
2026-04-23 12:22 40.60228 12.72190 26170 ft 241 kts 349°
2026-04-23 12:22 40.61881 12.71806 26170 ft 241 kts 349°
2026-04-23 12:22 40.63535 12.71422 26170 ft 242 kts 349°
2026-04-23 12:23 40.65193 12.71037 26170 ft 242 kts 351°
2026-04-23 12:23 40.66860 12.70650 26170 ft 244 kts 352°
2026-04-23 12:23 40.68534 12.70262 26170 ft 245 kts 352°
2026-04-23 12:23 40.70209 12.69873 26170 ft 245 kts 352°
2026-04-23 12:24 40.71891 12.69481 26171 ft 246 kts 352°
2026-04-23 12:24 40.73577 12.69089 26171 ft 247 kts 352°
2026-04-23 12:24 40.75268 12.68695 26171 ft 247 kts 352°
2026-04-23 12:24 40.76960 12.68301 26171 ft 247 kts 352°
2026-04-23 12:25 40.78657 12.67913 26172 ft 247 kts 352°
2026-04-23 12:25 40.80356 12.67563 26172 ft 247 kts 353°
2026-04-23 12:25 40.82058 12.67214 26172 ft 247 kts 353°
2026-04-23 12:25 40.83756 12.66855 26172 ft 247 kts 352°
2026-04-23 12:26 40.85453 12.66493 26174 ft 247 kts 352°
2026-04-23 12:26 40.87156 12.66132 26166 ft 248 kts 354°
2026-04-23 12:26 40.88861 12.65770 26166 ft 249 kts 354°
2026-04-23 12:26 40.90576 12.65406 26166 ft 249 kts 354°
2026-04-23 12:27 40.92284 12.65044 26166 ft 249 kts 354°
2026-04-23 12:27 40.94002 12.64680 26166 ft 250 kts 354°
2026-04-23 12:27 40.95694 12.64321 26166 ft 250 kts 354°
2026-04-23 12:27 40.97411 12.63957 26167 ft 250 kts 354°
2026-04-23 12:28 40.99128 12.63592 26168 ft 250 kts 354°
2026-04-23 12:28 41.00848 12.63226 26168 ft 250 kts 354°
2026-04-23 12:28 41.02568 12.62861 26168 ft 250 kts 354°
2026-04-23 12:28 41.04291 12.62494 26168 ft 250 kts 354°
2026-04-23 12:29 41.06011 12.62128 26167 ft 250 kts 354°
2026-04-23 12:29 41.07729 12.61762 26167 ft 250 kts 354°
2026-04-23 12:29 41.09442 12.61397 26163 ft 250 kts 356°
2026-04-23 12:29 41.11168 12.61031 26164 ft 251 kts 356°
2026-04-23 12:30 41.12893 12.60664 26167 ft 252 kts 356°
2026-04-23 12:30 41.14631 12.60293 26167 ft 253 kts 356°
2026-04-23 12:30 41.16366 12.59922 26167 ft 253 kts 356°
2026-04-23 12:30 41.18104 12.59550 26162 ft 253 kts 356°
2026-04-23 12:31 41.19844 12.59178 26163 ft 253 kts 356°
2026-04-23 12:31 41.21586 12.58806 26163 ft 254 kts 356°
2026-04-23 12:31 41.23326 12.58433 26163 ft 253 kts 356°
2026-04-23 12:31 41.25065 12.58061 26163 ft 253 kts 356°
2026-04-23 12:32 41.26803 12.57689 26156 ft 253 kts 356°
2026-04-23 12:32 41.28547 12.57315 26156 ft 254 kts 356°
2026-04-23 12:32 41.30286 12.56942 26153 ft 253 kts 357°
2026-04-23 12:32 41.32031 12.56565 26155 ft 254 kts 357°
2026-04-23 12:33 41.33777 12.56190 26156 ft 255 kts 357°
2026-04-23 12:33 41.35525 12.55815 26150 ft 255 kts 357°
2026-04-23 12:33 41.37278 12.55438 26150 ft 255 kts 357°
2026-04-23 12:33 41.39030 12.55061 26150 ft 255 kts 357°
2026-04-23 12:34 41.40785 12.54684 26152 ft 256 kts 357°
2026-04-23 12:34 41.42455 12.54324 26152 ft 256 kts 357°
2026-04-23 12:34 41.44215 12.53945 26147 ft 256 kts 357°
2026-04-23 12:34 41.45972 12.53566 26147 ft 256 kts 357°
2026-04-23 12:35 41.47733 12.53187 26145 ft 256 kts 357°
2026-04-23 12:35 41.49493 12.52807 26128 ft 256 kts 357°
2026-04-23 12:35 41.51254 12.52427 26111 ft 256 kts 358°
2026-04-23 12:35 41.53013 12.52048 26126 ft 256 kts 357°
2026-04-23 12:36 41.54776 12.51669 26125 ft 257 kts 357°
2026-04-23 12:36 41.56520 12.51292 26124 ft 257 kts 357°
2026-04-23 12:36 41.58288 12.50909 26124 ft 258 kts 357°
2026-04-23 12:36 41.60061 12.50525 26124 ft 258 kts 357°
2026-04-23 12:37 41.61839 12.50140 26124 ft 259 kts 357°
2026-04-23 12:37 41.63638 12.49750 26123 ft 259 kts 357°
2026-04-23 12:37 41.65395 12.49369 26124 ft 259 kts 357°
2026-04-23 12:37 41.67169 12.48984 26123 ft 259 kts 357°
2026-04-23 12:38 41.68950 12.48597 26124 ft 259 kts 357°
2026-04-23 12:38 41.70724 12.48212 26124 ft 259 kts 357°
2026-04-23 12:38 41.72505 12.47825 26124 ft 259 kts 357°
2026-04-23 12:38 41.74277 12.47438 26123 ft 259 kts 358°
2026-04-23 12:39 41.76052 12.47051 26124 ft 259 kts 358°
2026-04-23 12:39 41.77839 12.46662 26124 ft 259 kts 358°
2026-04-23 12:39 41.79620 12.46274 26125 ft 259 kts 358°
2026-04-23 12:39 41.81398 12.45887 26124 ft 259 kts 358°
2026-04-23 12:40 41.83180 12.45498 26122 ft 259 kts 358°
2026-04-23 12:40 41.84963 12.45109 26122 ft 260 kts 358°
2026-04-23 12:40 41.86745 12.44720 26122 ft 260 kts 358°
2026-04-23 12:40 41.88528 12.44331 26122 ft 260 kts 358°
2026-04-23 12:41 41.90311 12.43941 26123 ft 260 kts 358°
2026-04-23 12:41 41.92095 12.43551 26122 ft 260 kts 358°
2026-04-23 12:41 41.93880 12.43160 26121 ft 260 kts 358°
2026-04-23 12:41 41.95662 12.42770 26121 ft 259 kts 359°
2026-04-23 12:42 41.97444 12.42380 26122 ft 259 kts 359°
2026-04-23 12:42 41.99222 12.41990 26124 ft 259 kts 359°
2026-04-23 12:42 42.01002 12.41600 26123 ft 259 kts 359°
2026-04-23 12:42 42.02780 12.41211 26122 ft 259 kts 359°
2026-04-23 12:43 42.04552 12.40823 26123 ft 258 kts 359°
2026-04-23 12:43 42.06322 12.40432 26123 ft 258 kts 358°
2026-04-23 12:43 42.08096 12.40041 26123 ft 258 kts 358°
2026-04-23 12:43 42.09870 12.39652 26122 ft 258 kts 359°
2026-04-23 12:44 42.11641 12.39262 26124 ft 258 kts 358°
2026-04-23 12:44 42.13416 12.38871 26127 ft 259 kts 358°
2026-04-23 12:44 42.15191 12.38481 26126 ft 259 kts 358°
2026-04-23 12:44 42.16977 12.38087 26126 ft 260 kts 358°
2026-04-23 12:45 42.18752 12.37695 26133 ft 260 kts 358°
2026-04-23 12:45 42.20542 12.37300 26137 ft 260 kts 358°
2026-04-23 12:45 42.22331 12.36905 26136 ft 260 kts 358°
2026-04-23 12:45 42.24117 12.36510 26136 ft 260 kts 358°
2026-04-23 12:46 42.25901 12.36116 26134 ft 260 kts 358°
2026-04-23 12:46 42.27692 12.35720 26134 ft 260 kts 358°
2026-04-23 12:46 42.29474 12.35326 26134 ft 260 kts 358°
2026-04-23 12:46 42.31260 12.34930 26134 ft 260 kts 358°
2026-04-23 12:47 42.33047 12.34534 26133 ft 260 kts 358°
2026-04-23 12:47 42.34830 12.34139 26133 ft 260 kts 358°
2026-04-23 12:47 42.36610 12.33744 26143 ft 259 kts 359°
2026-04-23 12:47 42.38387 12.33349 26149 ft 259 kts 359°
2026-04-23 12:48 42.40137 12.32961 26158 ft 258 kts 359°
2026-04-23 12:48 42.41931 12.32563 26149 ft 258 kts 359°
2026-04-23 12:48 42.43705 12.32168 26148 ft 258 kts 359°
2026-04-23 12:48 42.45452 12.31780 26156 ft 258 kts 359°
2026-04-23 12:49 42.47246 12.31380 26172 ft 258 kts 359°
2026-04-23 12:49 42.49018 12.30986 26156 ft 258 kts 359°
2026-04-23 12:49 42.50766 12.30596 26156 ft 258 kts 359°
2026-04-23 12:49 42.52531 12.30202 26164 ft 257 kts 359°
2026-04-23 12:50 42.54299 12.29808 26164 ft 257 kts 359°
2026-04-23 12:50 42.56062 12.29414 26169 ft 256 kts 359°
2026-04-23 12:50 42.57822 12.29021 26162 ft 256 kts 359°
2026-04-23 12:50 42.59578 12.28629 26161 ft 256 kts 359°
2026-04-23 12:51 42.61331 12.28237 26175 ft 255 kts 359°
2026-04-23 12:51 42.63083 12.27845 26176 ft 255 kts 359°
2026-04-23 12:51 42.64828 12.27455 26171 ft 254 kts 359°
2026-04-23 12:51 42.66575 12.27063 26175 ft 254 kts 359°
2026-04-23 12:52 42.68320 12.26672 26175 ft 254 kts 359°
2026-04-23 12:52 42.70064 12.26281 26171 ft 254 kts 359°
2026-04-23 12:52 42.71812 12.25889 26179 ft 254 kts 359°
2026-04-23 12:52 42.73557 12.25497 26172 ft 254 kts 359°
2026-04-23 12:53 42.75309 12.25104 26176 ft 255 kts 359°
2026-04-23 12:53 42.77058 12.24710 26177 ft 255 kts 359°
2026-04-23 12:53 42.78804 12.24317 26186 ft 254 kts 358°
2026-04-23 12:53 42.80548 12.23925 26185 ft 254 kts 358°
2026-04-23 12:54 42.82296 12.23532 26192 ft 255 kts 358°
2026-04-23 12:54 42.84056 12.23136 26184 ft 256 kts 358°
2026-04-23 12:54 42.85818 12.22739 26194 ft 258 kts 358°
2026-04-23 12:54 42.87590 12.22339 26192 ft 258 kts 358°
2026-04-23 12:55 42.89367 12.21938 26200 ft 259 kts 358°
2026-04-23 12:55 42.91141 12.21537 26196 ft 259 kts 358°
2026-04-23 12:55 42.92917 12.21136 26197 ft 258 kts 358°
2026-04-23 12:55 42.94686 12.20736 26204 ft 258 kts 358°
2026-04-23 12:56 42.96458 12.20336 26199 ft 258 kts 358°
2026-04-23 12:56 42.98226 12.19935 26196 ft 257 kts 358°
2026-04-23 12:56 42.99994 12.19535 26199 ft 257 kts 358°
2026-04-23 12:56 43.01762 12.19134 26202 ft 257 kts 358°
2026-04-23 12:57 43.03527 12.18734 26209 ft 257 kts 358°
2026-04-23 12:57 43.05270 12.18339 26209 ft 257 kts 358°
2026-04-23 12:57 43.07037 12.17957 26209 ft 255 kts
2026-04-23 12:57 43.08799 12.17641 26212 ft 256 kts 359°
2026-04-23 12:58 43.10561 12.17290 26205 ft 256 kts 359°
2026-04-23 12:58 43.12320 12.16950 26205 ft 255 kts 359°
2026-04-23 12:58 43.14079 12.16624 26208 ft 255 kts 359°
2026-04-23 12:58 43.15836 12.16296 26206 ft 255 kts 359°
2026-04-23 12:59 43.17591 12.15966 26209 ft 255 kts 359°
2026-04-23 12:59 43.19346 12.15634 26216 ft 254 kts 359°
2026-04-23 12:59 43.21097 12.15304 26218 ft 254 kts 359°
2026-04-23 12:59 43.22852 12.14974 26215 ft 255 kts 359°
2026-04-23 13:00 43.24607 12.14643 26219 ft 255 kts 359°
2026-04-23 13:00 43.26362 12.14312 26221 ft 255 kts 359°
2026-04-23 13:00 43.28123 12.13981 26222 ft 255 kts 359°
2026-04-23 13:00 43.29882 12.13649 26218 ft 255 kts 359°
2026-04-23 13:01 43.31633 12.13316 26226 ft 254 kts 359°
2026-04-23 13:01 43.33376 12.12986 26223 ft 252 kts 359°
2026-04-23 13:01 43.35111 12.12659 26231 ft 253 kts 359°
2026-04-23 13:01 43.36866 12.12327 26233 ft 255 kts 359°
2026-04-23 13:02 43.38060 12.12102 26233 ft 256 kts 359°
2026-04-23 13:02 43.39827 12.11766 26226 ft 257 kts 359°
2026-04-23 13:02 43.41601 12.11429 26226 ft 257 kts 359°
2026-04-23 13:02 43.43375 12.11092 26229 ft 258 kts 359°
2026-04-23 13:03 43.45152 12.10755 26227 ft 258 kts 359°
2026-04-23 13:03 43.46933 12.10417 26226 ft 258 kts 359°
2026-04-23 13:03 43.48709 12.10079 26225 ft 258 kts 359°
2026-04-23 13:03 43.50486 12.09740 26228 ft 257 kts 359°
2026-04-23 13:04 43.52259 12.09403 26232 ft 257 kts 359°
2026-04-23 13:04 43.54032 12.09065 26232 ft 257 kts 359°
2026-04-23 13:04 43.55801 12.08728 26232 ft 257 kts 359°
2026-04-23 13:04 43.57572 12.08390 26232 ft 257 kts 359°
2026-04-23 13:05 43.59340 12.08053 26235 ft 256 kts 359°
2026-04-23 13:05 43.61082 12.07720 26234 ft 256 kts 359°
2026-04-23 13:05 43.62846 12.07383 26236 ft 256 kts 359°
2026-04-23 13:05 43.64636 12.07041 26235 ft 256 kts 359°
2026-04-23 13:06 43.68142 12.06370 26238 ft 256 kts 359°
2026-04-23 13:06 43.69907 12.06032 26245 ft 256 kts 359°
2026-04-23 13:06 43.71671 12.05694 26244 ft 256 kts 359°
2026-04-23 13:07 43.73460 12.05351 26241 ft 256 kts 359°
2026-04-23 13:07 43.75201 12.05017 26245 ft 256 kts 359°
2026-04-23 13:07 43.76967 12.04678 26241 ft 256 kts 359°
2026-04-23 13:07 43.78729 12.04340 26231 ft 256 kts 359°
2026-04-23 13:08 43.80486 12.04002 26239 ft 255 kts 359°
2026-04-23 13:08 43.82244 12.03664 26241 ft 256 kts 359°
2026-04-23 13:08 43.84010 12.03325 26244 ft 257 kts 359°
2026-04-23 13:08 43.85779 12.02984 26242 ft 256 kts 359°
2026-04-23 13:09 43.87541 12.02644 26244 ft 256 kts 359°
2026-04-23 13:09 43.89309 12.02303 26243 ft 256 kts 359°
2026-04-23 13:09 43.91071 12.01964 26247 ft 256 kts 359°
2026-04-23 13:09 43.92839 12.01623 26246 ft 256 kts 359°
2026-04-23 13:10 43.94606 12.01281 26242 ft 256 kts 358°
2026-04-23 13:10 43.96376 12.00939 26244 ft 257 kts 359°
2026-04-23 13:10 43.98140 12.00599 26244 ft 258 kts 359°
2026-04-23 13:10 43.99928 12.00253 26237 ft 258 kts 359°
2026-04-23 13:11 44.01708 11.99908 26239 ft 258 kts 359°
2026-04-23 13:11 44.03487 11.99563 26238 ft 258 kts 359°
2026-04-23 13:11 44.05265 11.99219 26239 ft 258 kts 359°
2026-04-23 13:11 44.07048 11.98874 26237 ft 259 kts 359°
2026-04-23 13:12 44.08829 11.98527 26235 ft 258 kts 359°
2026-04-23 13:12 44.10606 11.98182 26235 ft 258 kts 359°
2026-04-23 13:12 44.12384 11.97838 26233 ft 258 kts 359°
2026-04-23 13:12 44.14160 11.97493 26235 ft 258 kts 359°
2026-04-23 13:13 44.15941 11.97146 26235 ft 258 kts 359°
2026-04-23 13:13 44.17718 11.96800 26234 ft 258 kts 359°
2026-04-23 13:13 44.19493 11.96454 26234 ft 257 kts 359°
2026-04-23 13:13 44.21266 11.96109 26234 ft 257 kts 359°
2026-04-23 13:14 44.23040 11.95763 26235 ft 257 kts 359°
2026-04-23 13:14 44.24814 11.95416 26236 ft 257 kts 359°
2026-04-23 13:14 44.26586 11.95070 26236 ft 257 kts 359°
2026-04-23 13:14 44.28355 11.94725 26237 ft 257 kts 359°
2026-04-23 13:15 44.30124 11.94379 26255 ft 257 kts 359°
2026-04-23 13:15 44.31889 11.94034 26255 ft 256 kts 359°
2026-04-23 13:15 44.33658 11.93688 26255 ft 256 kts 359°
2026-04-23 13:15 44.35425 11.93342 26259 ft 256 kts 359°
2026-04-23 13:16 44.37185 11.92997 26253 ft 256 kts 358°
2026-04-23 13:16 44.38951 11.92650 26250 ft 256 kts 358°
2026-04-23 13:16 44.40688 11.92310 26250 ft 255 kts 358°
2026-04-23 13:16 44.42446 11.91964 26250 ft 255 kts 358°
2026-04-23 13:17 44.44206 11.91619 26253 ft 255 kts 358°
2026-04-23 13:17 44.45962 11.91274 26250 ft 255 kts 358°
2026-04-23 13:17 44.47723 11.90927 26250 ft 255 kts 358°
2026-04-23 13:17 44.49479 11.90582 26250 ft 255 kts 358°
2026-04-23 13:18 44.51233 11.90236 26250 ft 255 kts 358°
2026-04-23 13:18 44.52994 11.89889 26250 ft 255 kts 358°
2026-04-23 13:18 44.54748 11.89543 26250 ft 255 kts 358°
2026-04-23 13:18 44.56505 11.89197 26250 ft 255 kts 358°
2026-04-23 13:19 44.58259 11.88851 26251 ft 254 kts 358°
2026-04-23 13:19 44.60012 11.88504 26251 ft 254 kts 358°
2026-04-23 13:19 44.61763 11.88158 26250 ft 254 kts 358°
2026-04-23 13:19 44.63518 11.87811 26251 ft 254 kts 358°
2026-04-23 13:20 44.65269 11.87465 26246 ft 254 kts 358°
2026-04-23 13:20 44.67020 11.87118 26246 ft 254 kts 358°
2026-04-23 13:20 44.68772 11.86771 26244 ft 254 kts 358°
2026-04-23 13:20 44.70521 11.86424 26244 ft 254 kts 358°
2026-04-23 13:21 44.72273 11.86077 26242 ft 254 kts 358°
2026-04-23 13:21 44.74021 11.85730 26244 ft 254 kts 358°
2026-04-23 13:21 44.75773 11.85382 26244 ft 254 kts 358°
2026-04-23 13:21 44.77524 11.85034 26244 ft 254 kts 358°
2026-04-23 13:22 44.79272 11.84686 26245 ft 254 kts 358°
2026-04-23 13:22 44.81022 11.84339 26245 ft 255 kts 358°
2026-04-23 13:22 44.82783 11.83988 26246 ft 256 kts 358°
2026-04-23 13:22 44.84548 11.83637 26246 ft 257 kts 358°
2026-04-23 13:23 44.86322 11.83283 26238 ft 257 kts 358°
2026-04-23 13:23 44.88096 11.82929 26238 ft 258 kts 358°
2026-04-23 13:23 44.89870 11.82575 26239 ft 258 kts 358°
2026-04-23 13:23 44.91648 11.82220 26238 ft 258 kts 358°
2026-04-23 13:24 44.93402 11.81869 26235 ft 258 kts 358°
2026-04-23 13:24 44.95177 11.81515 26235 ft 258 kts 358°
2026-04-23 13:24 44.96956 11.81159 26235 ft 258 kts 358°
2026-04-23 13:24 44.98726 11.80804 26236 ft 257 kts 358°
2026-04-23 13:25 45.00497 11.80449 26237 ft 257 kts 358°
2026-04-23 13:25 45.02272 11.80094 26231 ft 257 kts 358°
2026-04-23 13:25 45.04039 11.79739 26230 ft 256 kts 358°
2026-04-23 13:25 45.05805 11.79385 26227 ft 256 kts 358°
2026-04-23 13:26 45.07567 11.79031 26226 ft 256 kts 358°
2026-04-23 13:26 45.09333 11.78676 26220 ft 256 kts 358°
2026-04-23 13:26 45.11094 11.78322 26216 ft 256 kts 358°
2026-04-23 13:26 45.12854 11.77968 26213 ft 256 kts 358°
2026-04-23 13:27 45.14614 11.77613 26207 ft 255 kts 358°
2026-04-23 13:27 45.16374 11.77259 26204 ft 255 kts 358°
2026-04-23 13:27 45.18129 11.76905 26201 ft 255 kts 358°
2026-04-23 13:27 45.19885 11.76551 26198 ft 255 kts 358°
2026-04-23 13:28 45.21633 11.76198 26196 ft 255 kts 358°
2026-04-23 13:28 45.23390 11.75843 26193 ft 255 kts 358°
2026-04-23 13:28 45.25145 11.75489 26189 ft 255 kts 358°
2026-04-23 13:28 45.26897 11.75134 26187 ft 255 kts 358°
2026-04-23 13:29 45.28651 11.74779 26184 ft 255 kts 358°
2026-04-23 13:29 45.30406 11.74424 26182 ft 255 kts 358°
2026-04-23 13:29 45.32160 11.74069 26181 ft 255 kts 358°
2026-04-23 13:29 45.33913 11.73714 26179 ft 255 kts 358°
2026-04-23 13:30 45.35668 11.73358 26177 ft 255 kts 358°
2026-04-23 13:30 45.37425 11.73001 26175 ft 255 kts 358°
2026-04-23 13:30 45.39178 11.72645 26177 ft 255 kts 358°
2026-04-23 13:30 45.40931 11.72289 26177 ft 254 kts 358°
2026-04-23 13:31 45.42687 11.71932 26178 ft 255 kts 358°
2026-04-23 13:31 45.44447 11.71574 26180 ft 256 kts 358°
2026-04-23 13:31 45.46216 11.71214 26174 ft 257 kts 358°
2026-04-23 13:31 45.47984 11.70853 26181 ft 257 kts 358°
2026-04-23 13:32 45.49758 11.70491 26179 ft 258 kts 358°
2026-04-23 13:32 45.51536 11.70129 26180 ft 258 kts 358°
2026-04-23 13:32 45.53312 11.69766 26182 ft 258 kts 358°
2026-04-23 13:32 45.55094 11.69402 26182 ft 258 kts 358°
2026-04-23 13:33 45.56872 11.69039 26186 ft 258 kts 358°
2026-04-23 13:33 45.58651 11.68675 26183 ft 258 kts 358°
2026-04-23 13:33 45.60427 11.68312 26187 ft 258 kts 358°
2026-04-23 13:33 45.62205 11.67948 26187 ft 258 kts 358°
2026-04-23 13:34 45.63955 11.67541 26189 ft 260 kts 352°
2026-04-23 13:34 45.65690 11.66819 26208 ft 260 kts 349°
2026-04-23 13:34 45.67446 11.66067 26210 ft 260 kts 349°
2026-04-23 13:34 45.69165 11.65345 26199 ft 261 kts 350°
2026-04-23 13:35 45.70916 11.64614 25983 ft 262 kts 349°
2026-04-23 13:35 45.72658 11.63882 25805 ft 259 kts 349°
2026-04-23 13:35 45.74372 11.63158 25689 ft 256 kts 349°
2026-04-23 13:35 45.76072 11.62442 25561 ft 253 kts 349°
2026-04-23 13:36 45.77759 11.61732 25441 ft 251 kts 349°
2026-04-23 13:36 45.79431 11.61026 25319 ft 250 kts 349°
2026-04-23 13:36 45.81115 11.60316 25197 ft 248 kts 349°
2026-04-23 13:36 45.82747 11.59626 25087 ft 247 kts 349°
2026-04-23 13:37 45.84397 11.58929 24964 ft 247 kts 349°
2026-04-23 13:37 45.86040 11.58234 24846 ft 246 kts 349°
2026-04-23 13:37 45.87684 11.57539 24733 ft 246 kts 349°
2026-04-23 13:37 45.89322 11.56845 24605 ft 245 kts 349°
2026-04-23 13:38 45.90956 11.56152 24438 ft 245 kts 349°
2026-04-23 13:38 45.92601 11.55456 24255 ft 248 kts 349°
2026-04-23 13:38 45.94266 11.54751 24069 ft 250 kts 349°
2026-04-23 13:38 45.95941 11.54037 23883 ft 251 kts 348°
2026-04-23 13:39 45.97529 11.52945 23693 ft 258 kts 331°
2026-04-23 13:39 45.98851 11.51124 23305 ft 271 kts 312°
2026-04-23 13:39 45.99729 11.48679 22909 ft 283 kts 292°
2026-04-23 13:39 46.00080 11.45864 22523 ft 288 kts 281°
2026-04-23 13:40 46.00308 11.42991 21944 ft 292 kts 281°
2026-04-23 13:40 46.00543 11.40078 21176 ft 295 kts 281°
2026-04-23 13:40 46.00791 11.37144 20424 ft 295 kts 281°
2026-04-23 13:40 46.01039 11.34213 19694 ft 295 kts 281°
2026-04-23 13:41 46.01279 11.31309 19022 ft 290 kts 281°
2026-04-23 13:41 46.01512 11.28474 18431 ft 282 kts 281°
2026-04-23 13:41 46.01743 11.25672 17750 ft 276 kts 281°
2026-04-23 13:41 46.01996 11.22981 17099 ft 268 kts 286°
2026-04-23 13:42 46.02613 11.20507 16451 ft 259 kts 303°
2026-04-23 13:42 46.03623 11.18438 15816 ft 249 kts 317°
2026-04-23 13:42 46.04919 11.16858 15191 ft 240 kts 332°
2026-04-23 13:42 46.06381 11.15827 14589 ft 232 kts 345°
2026-04-23 13:43 46.07936 11.15332 13973 ft 226 kts 358°
2026-04-23 13:43 46.09488 11.15367 13317 ft 222 kts
2026-04-23 13:43 46.10977 11.15885 12661 ft 218 kts 17°
2026-04-23 13:43 46.12419 11.16453 12028 ft 213 kts 16°
2026-04-23 13:44 46.13833 11.17012 11407 ft 208 kts 16°
2026-04-23 13:44 46.15220 11.17560 10798 ft 205 kts 15°
2026-04-23 13:44 46.16586 11.18097 10198 ft 201 kts 15°
2026-04-23 13:44 46.17924 11.18624 9546 ft 198 kts 15°
2026-04-23 13:45 46.18799 11.18968 9116 ft 196 kts 15°
2026-04-23 13:45 46.20560 11.19661 8263 ft 197 kts 15°
2026-04-23 13:45 46.21881 11.20182 7657 ft 197 kts 14°
2026-04-23 13:45 46.23201 11.20702 7049 ft 197 kts 14°
2026-04-23 13:46 46.24511 11.21293 6437 ft 197 kts 20°
2026-04-23 13:46 46.25791 11.22010 5815 ft 198 kts 20°
2026-04-23 13:46 46.26622 11.22474 5682 ft 185 kts 20°
2026-04-23 13:46 46.27738 11.23098 5667 ft 163 kts 20°
2026-04-23 13:47 46.28823 11.23696 5681 ft 171 kts 20°
2026-04-23 13:47 46.29970 11.24333 5549 ft 185 kts 20°
2026-04-23 13:47 46.31233 11.25039 5167 ft 204 kts 20°
2026-04-23 13:47 46.32561 11.25784 4710 ft 204 kts 20°
2026-04-23 13:48 46.33885 11.26522 4298 ft 201 kts 20°
2026-04-23 13:48 46.35146 11.27228 3907 ft 188 kts 20°
2026-04-23 13:48 46.36316 11.27918 3582 ft 174 kts 22°
2026-04-23 13:48 46.37386 11.28655 3120 ft 168 kts 25°
2026-04-23 13:49 46.38396 11.29409 2855 ft 158 kts 25°
2026-04-23 13:49 46.39293 11.30112 2639 ft 131 kts 27°
2026-04-23 13:49 46.40055 11.30735 2368 ft 124 kts 27°
2026-04-23 13:49 46.40827 11.31199 2079 ft 116 kts 15°
2026-04-23 13:50 46.41522 11.31450 1912 ft 94 kts
2026-04-23 13:50 46.42146 11.31623 1663 ft 86 kts
2026-04-23 13:50 46.42732 11.31782 1491 ft 83 kts
2026-04-23 13:50 46.43302 11.31920 1342 ft 85 kts
2026-04-23 13:51 46.43874 11.32075 1201 ft 85 kts
2026-04-23 13:51 46.44463 11.32224 1012 ft 86 kts 11°
2026-04-23 13:51 46.45055 11.32378 845 ft 86 kts 12°
2026-04-23 13:51 46.45605 11.32528 784 ft 70 kts 10°
2026-04-23 13:52 46.46011 11.32634 784 ft 49 kts 11°
2026-04-23 13:52 46.46224 11.32689 784 ft 18 kts 12°
2026-04-23 13:52 46.46236 11.32788 786 ft 11 kts 90°
2026-04-23 13:52 46.46294 11.32834 783 ft 7 kts
2026-04-23 13:53 46.46324 11.32841 783 ft 0 kts 10°
2026-04-23 13:53 46.46330 11.32843 783 ft 4 kts 21°
2026-04-23 13:53 46.46331 11.32880 783 ft 4 kts 100°
2026-04-23 13:53 46.46327 11.32912 783 ft 2 kts 100°